Hourly Data Report for September 07, 2013

All times are specified in Local Standard Time (LST). Add 1 hour to adjust for Daylight Saving Time where and when it is observed.

PETAWAWA AWOS 2
ONTARIO

45°57'00.000" N
77°19'00.000" W
130.10 m
6106396
71625
YWA

Download Data

Hourly Data (September 2013)
Hourly Data Report for September 7, 2013
Temp Definition
°C
Dew Point Temp Definition
°C
Rel Hum Definition
%
Wind Dir Definition
10's deg

Wind Spd Definition
km/h
Visibility Definition
km
Stn Press Definition
kPa
Hmdx Definition


Wind Chill Definition


Weather Definition


TIME
00:00 14.7 11.4 81 19 4 15.0 99.94      
01:00 14.6 11.9 84   0 15.0 99.91      
02:00 14.4 11.9 85   0 15.0 99.86      
03:00 14.2 12.2 88   0 15.0 99.83      
04:00 13.9 12.1 89 15 4 15.0 99.77      
05:00 14.1 12.2 88   0 15.0 99.73      
06:00 15.6 13.5 87 12 4 15.0 99.73      
07:00 14.6 13.4 93   0 15.0 99.74      
08:00 15.4 13.1 86   0 15.0 99.74     Rain
09:00 15.5 14.1 91 19 7 15.0 99.69     Rain
10:00 15.5 13.9 90 18 6 15.0 99.68      
11:00 16.7 14.3 86   0 15.0 99.65      
12:00 17.3 14.6 84 29 6 15.0 99.61      
13:00 18.1 15.5 85 26 6 15.0 99.58      
14:00 18.4 15.9 85 26 4 15.0 99.52      
15:00 18.4 16.4 88   0 15.0 99.49      
16:00 18.3 16.5 89 3 7 15.0 99.50      
17:00 18.4 16.8 90   0 15.0 99.53      
18:00 18.1 17.0 93 21 4 15.0 99.48      
19:00 18.2 16.9 92   0 15.0 99.50     Rain
20:00 17.5 17.1 98 32 6 9.7 99.55     Rain
21:00 16.8 16.1 96 30 4 15.0 99.62     Rain
22:00 17.0 15.2 89 33 11 15.0 99.68      
23:00 15.2 11.4 78 34 15 15.0 99.77      

Notes on Data Quality.

Legend

  • E = Estimated
  • M = Missing
  • NA = Not Available
  • ‡ = Partner data that is not subject to review by the National Climate Archives
Date modified: